TERRASAR-X

Last updated on Mon Sep 07 2026 00:02:45 GMT+0000 (Coordinated Universal Time)

1 31698U 07026A 26249.47321122 .00000526 00000+0 28227-4 0 9994 2 31698 97.4464 256.0284 0001830 80.4595 279.6846 15.19147818 65562
UTC large
Height (km)
Speed (km/s)
/
Latitude / Longitude
Inclination (degrees)
Orbital Period (minutes)
Azimuth
Elevation
Range (km)
Doppler Factor

Next 0 passes for location: London (51.5072 / 0.1276)

No passes found over London.
TERRASAR-X